Location: Unspecified
(43.4680°N, 87.1740°E)
Time: 03:15:45
(UTC+00:00)

ISS - Pass Details

Date: 26 September 2021
Orbit: 417 x 423 km, 51.6° (Epoch: 20 October)

Event Time Altitude Azimuth Distance (km) Brightness Sun altitude
Rises 14:18:47 0° 302° (WNW) 2,367 1.4 -25.1°
Reaches altitude 10° 14:21:08 10° 316° (NW) 1,503 -0.1 -25.5°
Enters shadow 14:22:48 20° 341° (NNW) 1,026 -1.4 -25.8°
